Location: Andrest
(43.3200°N, 0.0641°E)
Time: 08:26:37
(UTC+00:00)

Cosmos 1943 Rocket - Pass Details

Date: 01 December 2020
Orbit: 811 x 845 km, 71.0° (Epoch: 23 January)

Event Time Altitude Azimuth Distance (km) Brightness Sun altitude
Rises 17:52:48 0° 332° (NNW) 3,360 5.5 -15.5°
Reaches altitude 10° 17:55:14 10° 329° (NNW) 2,428 4.8 -15.9°
Maximum altitude 18:00:43 62° 250° (WSW) 926 2.7 -16.9°
Drops below altitude 10° 18:06:13 10° 170° (S) 2,434 4.6 -17.9°
Sets 18:08:40 0° 167° (SSE) 3,369 5.3 -18.3°
